Weather History for Kansas City International, MO

Change the Weather History Date:

Friday, November 16, 2012

  Actual Average Record
Temperature  
Mean Temperature 46 °F 44 °F  
Max Temperature 59 °F 53 °F 77 °F (1952)
Min Temperature 32 °F 34 °F 9 °F (1959)
Degree Days  
Heating Degree Days 19 22  
Month to date heating degree days 258 287  
Since 1 July heating degree days 660 647  
Cooling Degree Days 0 0  
Month to date cooling degree days 5 0  
Year to date cooling degree days 1839 1358  
Moisture  
Dew Point 33 °F    
Average Humidity 65    
Maximum Humidity 89    
Minimum Humidity 40    
Precipitation  
Precipitation 0.00 in 0.07 in 5.70 in (1928)
Month to date precipitation 1.36 1.23  
Year to date precipitation 20.94 36.41  
Snow  
Snow 0.00 in 0.00 in 1.40 in (1972)
Month to date snowfall 0.0 0.3  
Since 1 July snowfall 0.0 0.5  
Since 1 September snowfall 0.0 0.5  
Snow Depth 0.00 in    
Sea Level Pressure  
Sea Level Pressure 30.41 in    
Wind  
Wind Speed 6 mph (East)    
Max Wind Speed 12 mph    
Max Gust Speed 14 mph    
Visibility 10 miles    
Events      
T = Trace of Precipitation, MM = Missing Value Source: NWS Daily Summary

Daily Weather History Graph

Daily Weather History Graph

Search for Another Location

Airport:

Trip Planner

Search our weather history database for the weather conditions in past years. The results will help you decide how hot, cold, wet, or windy it might be!

Date:

Astronomy

Nov. 16, 2012 Rise Set
Actual Time 7:04 AM CST 5:03 PM CST
Civil Twilight 6:35 AM CST 5:31 PM CST
Nautical Twilight 6:02 AM CST 6:04 PM CST
Astronomical Twilight 5:31 AM CST 6:36 PM CST
Moon 9:59 AM CST (11/16) 8:03 PM CST (11/16)
Length of Visible Light 10h 56m
Length of Day
9h 58m
Waxing Crescent, 12% of the Moon is Illuminated
Nov 16
Waxing Crescent
Nov 20
First Quarter
Nov 28
Full
Dec 6
Last Quarter
Dec 13
New

Hourly Weather History & Observations

Time (CST) Temp. Windchill Dew Point Humidity Pressure Visibility Wind Dir Wind Speed Gust Speed Precip Events Conditions
12:53 AM 39.9 °F 36.7 °F 32.0 °F 73% 30.40 in 10.0 mi North 4.6 mph - N/A   Clear
1:53 AM 39.9 °F 36.7 °F 32.0 °F 73% 30.40 in 10.0 mi North 4.6 mph - N/A   Clear
2:53 AM 37.0 °F 32.4 °F 30.9 °F 79% 30.41 in 10.0 mi NNE 5.8 mph - N/A   Clear
3:53 AM 35.1 °F 27.9 °F 30.0 °F 82% 30.41 in 10.0 mi NNE 9.2 mph - N/A   Clear
4:53 AM 33.1 °F 26.1 °F 28.9 °F 85% 30.43 in 10.0 mi NNE 8.1 mph - N/A   Clear
5:53 AM 33.1 °F 26.9 °F 28.9 °F 85% 30.43 in 9.0 mi NNE 6.9 mph - N/A   Clear
6:53 AM 34.0 °F 27.2 °F 30.0 °F 85% 30.43 in 9.0 mi NE 8.1 mph - N/A   Clear
7:53 AM 35.1 °F 31.0 °F 30.9 °F 85% 30.45 in 7.0 mi NE 4.6 mph - N/A   Clear
8:53 AM 39.0 °F 35.7 °F 33.1 °F 79% 30.45 in 8.0 mi ENE 4.6 mph - N/A   Clear
9:53 AM 46.0 °F - 36.0 °F 68% 30.46 in 10.0 mi Calm Calm - N/A   Clear
10:53 AM 50.0 °F - 35.1 °F 57% 30.47 in 10.0 mi Calm Calm - N/A   Clear
11:53 AM 54.0 °F - 36.0 °F 51% 30.44 in 10.0 mi Variable 5.8 mph - N/A   Clear
12:53 PM 57.0 °F - 35.1 °F 44% 30.42 in 10.0 mi SE 4.6 mph - N/A   Clear
1:53 PM 57.9 °F - 34.0 °F 41% 30.39 in 10.0 mi SSE 5.8 mph - N/A   Clear
2:53 PM 57.9 °F - 33.1 °F 39% 30.38 in 10.0 mi ESE 5.8 mph - N/A   Clear
3:53 PM 57.0 °F - 34.0 °F 42% 30.38 in 10.0 mi East 9.2 mph - N/A   Clear
4:53 PM 54.0 °F - 35.1 °F 49% 30.38 in 10.0 mi East 8.1 mph - N/A   Clear
5:53 PM 51.1 °F - 35.1 °F 54% 30.37 in 10.0 mi East 6.9 mph - N/A   Partly Cloudy
6:53 PM 48.0 °F - 35.1 °F 61% 30.38 in 10.0 mi SE 5.8 mph - N/A   Scattered Clouds
7:53 PM 44.1 °F 40.1 °F 34.0 °F 68% 30.38 in 10.0 mi SE 6.9 mph - N/A   Scattered Clouds
8:53 PM 45.0 °F 41.8 °F 34.0 °F 65% 30.38 in 10.0 mi South 5.8 mph - N/A   Scattered Clouds
9:53 PM 43.0 °F 39.5 °F 34.0 °F 71% 30.38 in 10.0 mi SSE 5.8 mph - N/A   Scattered Clouds
10:53 PM 41.0 °F 35.8 °F 33.1 °F 73% 30.38 in 10.0 mi SSE 8.1 mph - N/A   Mostly Cloudy
11:53 PM 42.1 °F 36.1 °F 34.0 °F 73% 30.38 in 10.0 mi SSE 10.4 mph - N/A   Clear